Time,TemperatureF,DewpointF,PressureIn,WindDirection,WindDirectionDegrees,WindSpeedMPH,WindSpeedGustMPH,Humidity,HourlyPrecipIn,Conditions,Clouds,dailyrainin,SolarRadiationWatts/m^2,SoftwareType,DateUTC
2013-08-02 00:12:00,70.1,57.0,30.05,NW,315,0.0,1.0,64,0.00,,,0.00,0,weatherlink.com 1.10,2013-08-01 22:12:00,
2013-08-02 00:42:00,70.0,58.0,30.05,WNW,290,0.0,1.0,65,0.00,,,0.00,0,weatherlink.com 1.10,2013-08-01 22:42:00,
2013-08-02 01:27:00,69.3,58.0,30.06,WNW,289,0.0,0.0,67,0.00,,,0.00,0,weatherlink.com 1.10,2013-08-01 23:27:00,
2013-08-02 01:42:00,68.9,57.0,30.06,WNW,288,0.0,0.0,67,0.00,,,0.00,0,weatherlink.com 1.10,2013-08-01 23:42:00,
2013-08-02 01:57:00,68.7,57.0,30.05,WNW,289,0.0,0.0,67,0.00,,,0.00,0,weatherlink.com 1.10,2013-08-01 23:57:00,
2013-08-02 02:12:00,68.7,58.0,30.06,WNW,285,0.0,0.0,68,0.00,,,0.00,0,weatherlink.com 1.10,2013-08-02 00:12:00,
2013-08-02 02:27:00,68.3,58.0,30.06,North,360,0.0,1.0,69,0.00,,,0.00,0,weatherlink.com 1.10,2013-08-02 00:27:00,
2013-08-02 02:42:00,67.8,58.0,30.06,WNW,290,0.0,1.0,70,0.00,,,0.00,0,weatherlink.com 1.10,2013-08-02 00:42:00,
2013-08-02 02:57:00,67.3,58.0,30.06,WNW,288,0.0,1.0,71,0.00,,,0.00,0,weatherlink.com 1.10,2013-08-02 00:57:00,
2013-08-02 03:12:00,66.9,58.0,30.06,WNW,289,0.0,1.0,72,0.00,,,0.00,0,weatherlink.com 1.10,2013-08-02 01:12:00,
2013-08-02 03:27:00,66.2,58.0,30.06,North,360,0.0,1.0,74,0.00,,,0.00,0,weatherlink.com 1.10,2013-08-02 01:27:00,
2013-08-02 03:42:00,65.7,58.0,30.06,North,360,0.0,1.0,75,0.00,,,0.00,0,weatherlink.com 1.10,2013-08-02 01:42:00,
2013-08-02 03:57:00,65.3,58.0,30.06,WNW,289,0.0,1.0,76,0.00,,,0.00,0,weatherlink.com 1.10,2013-08-02 01:57:00,
2013-08-02 04:28:00,64.9,58.0,30.06,North,360,0.0,1.0,78,0.00,,,0.00,0,weatherlink.com 1.10,2013-08-02 02:28:00,
2013-08-02 05:13:00,64.4,58.0,30.06,North,360,0.0,1.0,79,0.00,,,0.00,0,weatherlink.com 1.10,2013-08-02 03:13:00,
2013-08-02 05:28:00,64.2,58.0,30.06,North,360,0.0,0.0,80,0.00,,,0.00,5,weatherlink.com 1.10,2013-08-02 03:28:00,
2013-08-02 05:43:00,64.1,58.0,30.06,North,360,0.0,0.0,80,0.00,,,0.00,12,weatherlink.com 1.10,2013-08-02 03:43:00,
2013-08-02 06:13:00,66.4,60.0,30.07,WNW,288,0.0,0.0,80,0.00,,,0.00,60,weatherlink.com 1.10,2013-08-02 04:13:00,
2013-08-02 06:28:00,69.3,61.0,30.07,WNW,289,0.0,0.0,75,0.00,,,0.00,100,weatherlink.com 1.10,2013-08-02 04:28:00,
2013-08-02 06:43:00,72.3,62.0,30.07,WNW,290,0.0,1.0,69,0.00,,,0.00,146,weatherlink.com 1.10,2013-08-02 04:43:00,
2013-08-02 06:58:00,74.2,61.0,30.07,WNW,290,0.0,1.0,64,0.00,,,0.00,192,weatherlink.com 1.10,2013-08-02 04:58:00,
2013-08-02 07:13:00,76.0,61.0,30.07,WNW,294,0.0,2.0,60,0.00,,,0.00,234,weatherlink.com 1.10,2013-08-02 05:13:00,
2013-08-02 07:28:00,76.4,61.0,30.07,North,360,1.0,4.0,59,0.00,,,0.00,278,weatherlink.com 1.10,2013-08-02 05:28:00,
2013-08-02 07:43:00,77.8,60.0,30.07,NNE,13,1.0,3.0,55,0.00,,,0.00,318,weatherlink.com 1.10,2013-08-02 05:43:00,
2013-08-02 07:58:00,78.5,61.0,30.07,North,5,2.0,4.0,56,0.00,,,0.00,360,weatherlink.com 1.10,2013-08-02 05:58:00,
2013-08-02 08:13:00,79.2,62.0,30.07,North,5,1.0,4.0,55,0.00,,,0.00,403,weatherlink.com 1.10,2013-08-02 06:13:00,
2013-08-02 08:28:00,80.9,63.0,30.07,North,5,2.0,3.0,54,0.00,,,0.00,438,weatherlink.com 1.10,2013-08-02 06:28:00,
2013-08-02 08:44:00,80.8,63.0,30.07,NE,46,0.0,2.0,54,0.00,,,0.00,476,weatherlink.com 1.10,2013-08-02 06:44:00,
2013-08-02 08:59:00,82.6,62.0,30.08,North,5,1.0,4.0,50,0.00,,,0.00,515,weatherlink.com 1.10,2013-08-02 06:59:00,
2013-08-02 09:29:00,86.8,64.0,30.08,North,360,3.0,5.0,46,0.00,,,0.00,585,weatherlink.com 1.10,2013-08-02 07:29:00,
2013-08-02 09:44:00,85.7,63.0,30.07,NNE,21,1.0,5.0,46,0.00,,,0.00,628,weatherlink.com 1.10,2013-08-02 07:44:00,
2013-08-02 09:59:00,85.9,62.0,30.07,SSE,162,0.0,5.0,45,0.00,,,0.00,657,weatherlink.com 1.10,2013-08-02 07:59:00,
2013-08-02 10:14:00,85.8,61.0,30.07,SSW,211,3.0,5.0,44,0.00,,,0.00,687,weatherlink.com 1.10,2013-08-02 08:14:00,
2013-08-02 10:29:00,85.6,61.0,30.06,WSW,243,3.0,6.0,44,0.00,,,0.00,715,weatherlink.com 1.10,2013-08-02 08:29:00,
2013-08-02 10:44:00,86.9,61.0,30.06,WSW,238,2.0,6.0,42,0.00,,,0.00,731,weatherlink.com 1.10,2013-08-02 08:44:00,
2013-08-02 10:59:00,87.1,61.0,30.06,East,100,3.0,7.0,41,0.00,,,0.00,754,weatherlink.com 1.10,2013-08-02 08:59:00,
2013-08-02 11:14:00,87.2,61.0,30.06,NNE,17,2.0,6.0,41,0.00,,,0.00,773,weatherlink.com 1.10,2013-08-02 09:14:00,
2013-08-02 11:29:00,88.5,61.0,30.06,SSW,213,0.0,7.0,39,0.00,,,0.00,780,weatherlink.com 1.10,2013-08-02 09:29:00,
2013-08-02 11:44:00,89.1,60.0,30.06,East,80,3.0,7.0,37,0.00,,,0.00,803,weatherlink.com 1.10,2013-08-02 09:44:00,
2013-08-02 11:59:00,88.6,60.0,30.05,WSW,245,3.0,7.0,38,0.00,,,0.00,807,weatherlink.com 1.10,2013-08-02 09:59:00,
2013-08-02 12:14:00,88.3,60.0,30.05,ENE,58,5.0,9.0,39,0.00,,,0.00,814,weatherlink.com 1.10,2013-08-02 10:14:00,
2013-08-02 12:29:00,90.9,60.0,30.05,SW,226,0.0,8.0,35,0.00,,,0.00,826,weatherlink.com 1.10,2013-08-02 10:29:00,
2013-08-02 12:44:00,94.2,60.0,30.04,SW,217,0.0,9.0,32,0.00,,,0.00,835,weatherlink.com 1.10,2013-08-02 10:44:00,
2013-08-02 12:59:00,92.3,60.0,30.04,South,178,3.0,8.0,34,0.00,,,0.00,831,weatherlink.com 1.10,2013-08-02 10:59:00,
2013-08-02 13:14:00,91.1,59.0,30.03,SW,219,3.0,9.0,34,0.00,,,0.00,821,weatherlink.com 1.10,2013-08-02 11:14:00,
2013-08-02 13:29:00,93.3,58.0,30.03,SW,222,3.0,12.0,31,0.00,,,0.00,821,weatherlink.com 1.10,2013-08-02 11:29:00,
2013-08-02 13:44:00,94.4,59.0,30.02,SW,218,0.0,3.0,30,0.00,,,0.00,807,weatherlink.com 1.10,2013-08-02 11:44:00,
2013-08-02 13:59:00,94.6,62.0,30.02,North,11,0.0,4.0,34,0.00,,,0.00,796,weatherlink.com 1.10,2013-08-02 11:59:00,
2013-08-02 14:14:00,95.1,60.0,30.01,NE,38,0.0,7.0,31,0.00,,,0.00,777,weatherlink.com 1.10,2013-08-02 12:14:00,
2013-08-02 14:30:00,93.6,58.0,30.01,SW,218,1.0,5.0,30,0.00,,,0.00,752,weatherlink.com 1.10,2013-08-02 12:30:00,
2013-08-02 14:45:00,93.5,60.0,30.01,WNW,291,0.0,1.0,32,0.00,,,0.00,726,weatherlink.com 1.10,2013-08-02 12:45:00,
2013-08-02 15:00:00,92.5,58.0,30.00,SSW,213,4.0,8.0,31,0.00,,,0.00,701,weatherlink.com 1.10,2013-08-02 13:00:00,
2013-08-02 15:14:00,93.5,58.0,30.00,North,360,1.0,6.0,30,0.00,,,0.00,668,weatherlink.com 1.10,2013-08-02 13:14:00,
2013-08-02 15:30:00,93.5,60.0,29.99,NNE,17,3.0,5.0,32,0.00,,,0.00,645,weatherlink.com 1.10,2013-08-02 13:30:00,
2013-08-02 15:45:00,93.0,59.0,29.99,NW,324,1.0,5.0,32,0.00,,,0.00,608,weatherlink.com 1.10,2013-08-02 13:45:00,
2013-08-02 16:00:00,93.1,59.0,29.99,WSW,240,0.0,4.0,32,0.00,,,0.00,570,weatherlink.com 1.10,2013-08-02 14:00:00,
2013-08-02 16:15:00,92.7,60.0,29.98,West,277,0.0,2.0,33,0.00,,,0.00,550,weatherlink.com 1.10,2013-08-02 14:15:00,
2013-08-02 16:30:00,92.7,60.0,29.98,North,360,0.0,6.0,33,0.00,,,0.00,494,weatherlink.com 1.10,2013-08-02 14:30:00,
2013-08-02 16:45:00,92.0,59.0,29.98,SW,227,0.0,4.0,33,0.00,,,0.00,40,weatherlink.com 1.10,2013-08-02 14:45:00,
2013-08-02 17:00:00,92.1,59.0,29.97,North,350,2.0,4.0,33,0.00,,,0.00,47,weatherlink.com 1.10,2013-08-02 15:00:00,
2013-08-02 17:15:00,91.9,61.0,29.97,North,360,0.0,5.0,35,0.00,,,0.00,46,weatherlink.com 1.10,2013-08-02 15:15:00,
2013-08-02 17:30:00,91.5,60.0,29.97,SW,233,0.0,2.0,35,0.00,,,0.00,47,weatherlink.com 1.10,2013-08-02 15:30:00,
2013-08-02 17:45:00,91.3,59.0,29.97,WSW,240,0.0,4.0,34,0.00,,,0.00,44,weatherlink.com 1.10,2013-08-02 15:45:00,
2013-08-02 18:00:00,91.1,61.0,29.97,SSE,162,0.0,1.0,36,0.00,,,0.00,39,weatherlink.com 1.10,2013-08-02 16:00:00,
2013-08-02 18:15:00,91.0,60.0,29.97,SW,214,0.0,2.0,35,0.00,,,0.00,26,weatherlink.com 1.10,2013-08-02 16:15:00,
2013-08-02 18:30:00,90.6,59.0,29.96,SW,222,0.0,3.0,35,0.00,,,0.00,25,weatherlink.com 1.10,2013-08-02 16:30:00,
2013-08-02 18:45:00,90.1,60.0,29.96,SW,222,1.0,1.0,37,0.00,,,0.00,21,weatherlink.com 1.10,2013-08-02 16:45:00,
2013-08-02 19:00:00,89.2,61.0,29.96,SW,221,0.0,1.0,39,0.00,,,0.00,19,weatherlink.com 1.10,2013-08-02 17:00:00,
2013-08-02 19:15:00,87.8,60.0,29.97,North,360,0.0,1.0,39,0.00,,,0.00,16,weatherlink.com 1.10,2013-08-02 17:15:00,
2013-08-02 19:30:00,86.3,59.0,29.97,SW,224,0.0,1.0,39,0.00,,,0.00,14,weatherlink.com 1.10,2013-08-02 17:30:00,
2013-08-02 19:45:00,85.0,59.0,29.97,SW,221,0.0,1.0,41,0.00,,,0.00,11,weatherlink.com 1.10,2013-08-02 17:45:00,
2013-08-02 20:00:00,83.8,58.0,29.97,SW,223,0.0,1.0,42,0.00,,,0.00,7,weatherlink.com 1.10,2013-08-02 18:00:00,
2013-08-02 20:15:00,82.9,57.0,29.97,SW,221,0.0,1.0,42,0.00,,,0.00,0,weatherlink.com 1.10,2013-08-02 18:15:00,
2013-08-02 20:30:00,82.1,59.0,29.97,SW,221,0.0,1.0,45,0.00,,,0.00,0,weatherlink.com 1.10,2013-08-02 18:30:00,
2013-08-02 20:45:00,80.9,58.0,29.98,North,360,1.0,2.0,45,0.00,,,0.00,0,weatherlink.com 1.10,2013-08-02 18:45:00,
2013-08-02 21:00:00,80.3,57.0,29.98,SW,221,0.0,1.0,45,0.00,,,0.00,0,weatherlink.com 1.10,2013-08-02 19:00:00,
2013-08-02 21:15:00,80.1,59.0,29.98,North,360,0.0,1.0,48,0.00,,,0.00,0,weatherlink.com 1.10,2013-08-02 19:15:00,
2013-08-02 21:30:00,79.8,59.0,29.98,SW,221,0.0,1.0,49,0.00,,,0.00,0,weatherlink.com 1.10,2013-08-02 19:30:00,
2013-08-02 21:45:00,79.8,58.0,29.98,North,360,0.0,1.0,48,0.00,,,0.00,0,weatherlink.com 1.10,2013-08-02 19:45:00,
2013-08-02 22:00:00,80.6,58.0,29.98,SW,221,0.0,1.0,46,0.00,,,0.00,0,weatherlink.com 1.10,2013-08-02 20:00:00,
2013-08-02 22:15:00,81.8,57.0,29.98,SW,227,0.0,2.0,43,0.00,,,0.00,0,weatherlink.com 1.10,2013-08-02 20:15:00,
2013-08-02 22:30:00,82.4,59.0,29.98,SW,226,0.0,1.0,45,0.00,,,0.00,0,weatherlink.com 1.10,2013-08-02 20:30:00,
2013-08-02 22:45:00,80.5,60.0,29.98,SW,229,0.0,1.0,49,0.00,,,0.00,0,weatherlink.com 1.10,2013-08-02 20:45:00,
2013-08-02 23:00:00,78.5,59.0,29.99,SW,227,0.0,0.0,52,0.00,,,0.00,0,weatherlink.com 1.10,2013-08-02 21:00:00,
2013-08-02 23:15:00,77.2,59.0,29.99,SW,227,0.0,0.0,54,0.00,,,0.00,0,weatherlink.com 1.10,2013-08-02 21:15:00,
2013-08-02 23:30:00,76.0,59.0,29.99,SW,226,0.0,1.0,55,0.00,,,0.00,0,weatherlink.com 1.10,2013-08-02 21:30:00,
2013-08-02 23:45:00,75.3,58.0,29.99,SW,227,0.0,1.0,56,0.00,,,0.00,0,weatherlink.com 1.10,2013-08-02 21:45:00,